Weather History for PAIK - January, 2014

Change the Weather History Date:

Tuesday, January 28, 2014

  Actual Average (PASK) Record (PASK)
Temperature  
Mean Temperature 32 °F -  
Max Temperature 26 °F -2 °F 30 °F (2014)
Min Temperature 26 °F -12 °F -52 °F (2012)
Degree Days  
Heating Degree Days 32    
Moisture  
Dew Point 25 °F    
Average Humidity 78    
Maximum Humidity 89    
Minimum Humidity 58    
Precipitation  
Precipitation 0.00 in - - ()
Sea Level Pressure  
Sea Level Pressure 30.01 in    
Wind  
Wind Speed 7 mph (ENE)    
Max Wind Speed 13 mph    
Max Gust Speed 17 mph    
Visibility 10 miles    
Events      
Averages and records for this station are not official NWS values.
T = Trace of Precipitation, MM = Missing Value Source: NWS Daily Summary

Daily Weather History Graph

Daily Weather History Graph

Search for Another Location

Airport or City:

Trip Planner

Search our weather history database for the weather conditions in past years. The results will help you decide how hot, cold, wet, or windy it might be!

Date:

Astronomy

Jan. 28, 2014 Rise Set
Actual Time 11:01 AM AKST 4:48 PM AKST
Civil Twilight 9:51 AM AKST 5:59 PM AKST
Nautical Twilight 8:42 AM AKST 7:07 PM AKST
Astronomical Twilight 7:40 AM AKST 8:10 PM AKST
Moon 9:17 AM AKST (1/28) 2:31 PM AKST (1/28)
Length of Visible Light 8h 08m
Length of Day
5h 47m
Waning Crescent, 6% of the Moon is Illuminated
Jan 28
Waning Crescent
Jan 30
New
Feb 6
First Quarter
Feb 14
Full
Feb 22
Last Quarter

Hourly Weather History & Observations

Time (AKST) Temp. Windchill Dew Point Humidity Pressure Visibility Wind Dir Wind Speed Gust Speed Precip Events Conditions
12:01 AM 37.9 °F 30.5 °F 26.1 °F 62% 29.87 in 10.0 mi East 11.5 mph 17.3 mph N/A   Clear
1:01 AM 39.9 °F 32.5 °F 26.1 °F 58% 29.90 in 10.0 mi East 12.7 mph 16.1 mph N/A   Clear
2:01 AM 39.0 °F 32.8 °F 26.1 °F 60% 29.92 in 10.0 mi East 9.2 mph - N/A   Clear
3:01 AM 36.0 °F 30.3 °F 25.0 °F 64% 29.94 in 10.0 mi ESE 6.9 mph - N/A   Clear
4:01 AM 36.0 °F 28.5 °F 26.1 °F 67% 29.94 in 10.0 mi ESE 10.4 mph - N/A   Clear
5:01 AM 33.1 °F 26.1 °F 25.0 °F 72% 29.97 in 10.0 mi East 8.1 mph - N/A   Scattered Clouds
6:01 AM 33.1 °F 26.9 °F 25.0 °F 72% 29.99 in 10.0 mi ESE 6.9 mph - N/A   Clear
7:01 AM 32.0 °F 26.4 °F 25.0 °F 75% 29.99 in 10.0 mi East 5.8 mph - N/A   Clear
8:01 AM 32.0 °F 25.6 °F 25.0 °F 75% 30.00 in 10.0 mi ESE 6.9 mph - N/A   Clear
9:01 AM 30.9 °F 25.2 °F 26.1 °F 82% 30.00 in 10.0 mi ESE 5.8 mph - N/A   Clear
10:01 AM 32.0 °F - 26.1 °F 79% 30.02 in 10.0 mi Calm Calm - N/A   Clear
11:01 AM 30.9 °F - 26.1 °F 82% 30.02 in 10.0 mi Calm Calm - N/A   Clear
12:01 PM 30.9 °F 26.2 °F 26.1 °F 82% 30.04 in 10.0 mi East 4.6 mph - N/A   Clear
1:01 PM 32.0 °F 26.4 °F 26.1 °F 79% 30.05 in 10.0 mi ENE 5.8 mph - N/A   Clear
2:01 PM 32.0 °F - 27.0 °F 82% 30.06 in 10.0 mi Calm Calm - N/A   Clear
3:01 PM 30.9 °F 27.5 °F 27.0 °F 85% 30.06 in 10.0 mi North 3.5 mph - N/A   Clear
4:01 PM 33.1 °F - 26.1 °F 75% 30.06 in 10.0 mi Calm Calm - N/A   Clear
5:01 PM 28.9 °F 23.9 °F 26.1 °F 89% 30.06 in 10.0 mi NNE 4.6 mph - N/A   Mostly Cloudy
6:01 PM 28.0 °F 20.8 °F 25.0 °F 88% 30.06 in 10.0 mi North 6.9 mph - N/A   Mostly Cloudy
7:01 PM 28.0 °F - 25.0 °F 88% 30.07 in 10.0 mi Calm Calm - N/A   Overcast
8:01 PM 26.1 °F 20.5 °F 23.0 °F 88% 30.07 in 10.0 mi North 4.6 mph - N/A   Clear
9:01 PM 28.0 °F - 25.0 °F 88% 30.07 in 10.0 mi Calm Calm - N/A   Overcast
10:01 PM 27.0 °F 20.5 °F 24.1 °F 89% 30.07 in 10.0 mi ENE 5.8 mph - N/A   Overcast
11:01 PM 26.1 °F - 23.0 °F 88% 30.08 in 10.0 mi Calm Calm - N/A   Partly Cloudy